Weather History for Johnstown, PA

Change the Weather History Date:

Sunday, May 25, 2014

  Actual Average Record
Temperature  
Mean Temperature 60 °F 59 °F  
Max Temperature 72 °F 68 °F 95 °F (1904)
Min Temperature 47 °F 50 °F 31 °F (1956)
Degree Days  
Heating Degree Days 5 7  
Month to date heating degree days 240 240  
Since 1 July heating degree days 7198 6571  
Cooling Degree Days 0 1  
Month to date cooling degree days 15 12  
Year to date cooling degree days 19 17  
Growing Degree Days 10 (Base 50)    
Moisture  
Dew Point 43 °F    
Average Humidity 61    
Maximum Humidity 86    
Minimum Humidity 36    
Precipitation  
Precipitation 0.00 in 0.16 in 1.17 in (1952)
Month to date precipitation 3.18 3.58  
Year to date precipitation 12.96 15.69  
Sea Level Pressure  
Sea Level Pressure 30.17 in    
Wind  
Wind Speed 5 mph (West)    
Max Wind Speed 14 mph    
Max Gust Speed 19 mph    
Visibility 10 miles    
Events      
T = Trace of Precipitation, MM = Missing Value Source: NWS Daily Summary

Daily Weather History Graph

Daily Weather History Graph

Search for Another Location

Airport:

Trip Planner

Search our weather history database for the weather conditions in past years. The results will help you decide how hot, cold, wet, or windy it might be!

Date:

Astronomy

May. 25, 2014 Rise Set
Actual Time 5:51 AM EDT 8:33 PM EDT
Civil Twilight 5:19 AM EDT 9:05 PM EDT
Nautical Twilight 4:39 AM EDT 9:45 PM EDT
Astronomical Twilight 3:54 AM EDT 10:30 PM EDT
Moon 3:55 AM EDT (5/25) 5:32 PM EDT (5/25)
Length of Visible Light 15h 45m
Length of Day
14h 42m
Waning Crescent, 10% of the Moon is Illuminated
May 25
Waning Crescent
May 28
New
Jun 5
First Quarter
Jun 13
Full
Jun 19
Last Quarter

Hourly Weather History & Observations

Time (EDT) Temp. Dew Point Humidity Pressure Visibility Wind Dir Wind Speed Gust Speed Precip Events Conditions
12:54 AM 55.0 °F 43.0 °F 64% 30.17 in 10.0 mi NNE 3.5 mph - N/A   Clear
2:54 AM 55.0 °F 41.0 °F 59% 30.15 in 10.0 mi North 4.6 mph - N/A   Clear
3:54 AM 50.0 °F 43.0 °F 77% 30.15 in 10.0 mi WSW 6.9 mph - N/A   Clear
4:54 AM 48.0 °F 44.1 °F 86% 30.17 in 10.0 mi WSW 5.8 mph - N/A   Clear
5:54 AM 48.9 °F 42.1 °F 77% 30.17 in 10.0 mi SW 4.6 mph - N/A   Clear
6:54 AM 50.0 °F 44.1 °F 80% 30.20 in 10.0 mi SW 4.6 mph - N/A   Clear
7:54 AM 54.0 °F 45.0 °F 72% 30.20 in 10.0 mi SW 4.6 mph - N/A   Clear
8:54 AM 57.0 °F 45.0 °F 64% 30.22 in 10.0 mi West 3.5 mph - N/A   Clear
9:54 AM 62.1 °F 44.1 °F 52% 30.22 in 10.0 mi WNW 4.6 mph - N/A   Clear
11:54 AM 66.0 °F 39.9 °F 38% 30.20 in 10.0 mi NW 9.2 mph - N/A   Partly Cloudy
12:54 PM 66.9 °F 43.0 °F 42% 30.19 in 10.0 mi North - - N/A   Clear
1:54 PM 69.1 °F 42.1 °F 38% 30.18 in 10.0 mi Variable 5.8 mph - N/A   Clear
2:54 PM 69.1 °F 41.0 °F 36% 30.17 in 10.0 mi WNW 5.8 mph - N/A   Clear
3:54 PM 70.0 °F 42.1 °F 36% 30.16 in 10.0 mi Variable 5.8 mph 16.1 mph N/A   Clear
4:54 PM 70.0 °F 41.0 °F 35% 30.15 in 10.0 mi Calm Calm - N/A   Clear
5:54 PM 71.1 °F 44.1 °F 38% 30.15 in 10.0 mi West 6.9 mph - N/A   Partly Cloudy
6:54 PM 70.0 °F 44.1 °F 39% 30.15 in 10.0 mi NW 8.1 mph - N/A   Clear
7:54 PM 66.9 °F 45.0 °F 45% 30.14 in 10.0 mi WNW 5.8 mph - N/A   Clear
8:54 PM 64.0 °F 44.1 °F 48% 30.14 in 10.0 mi WNW 3.5 mph - N/A   Clear
9:54 PM 64.9 °F 43.0 °F 45% 30.15 in 10.0 mi WSW 3.5 mph - N/A   Clear
10:54 PM 63.0 °F 44.1 °F 50% 30.15 in 10.0 mi SW 3.5 mph - N/A   Clear
11:54 PM 61.0 °F 44.1 °F 54% 30.14 in 10.0 mi SW 5.8 mph - N/A   Clear